This is the latest recevied weather packets stored in our database for station/object SV9TNF-57. If no packets are shown the sender has not sent any weather packets the latest 10 day(s).
| Time | Temp. | Humidity | Pressure | Rain* | Wind** | Luminosity | Snow |
|---|---|---|---|---|---|---|---|
| 1787935587 | 30° C | 44% | 994.6 hPa | 0 mm | 0 m/s | - | - |
| 1787935287 | 30° C | 44% | 994.7 hPa | 0 mm | 0.89 m/s, 322° | - | - |
| 1787934986 | 30° C | 44% | 994.9 hPa | 0 mm | 4.47 m/s, 11° | - | - |
| 1787934686 | 30.56° C | 43% | 994.8 hPa | 0 mm | 0 m/s | - | - |
| 1787934386 | 31.11° C | 43% | 994.7 hPa | 0 mm | 0 m/s | - | - |
| 1787934086 | 31.11° C | 45% | 994.6 hPa | 0 mm | 0 m/s | - | - |
| 1787933786 | 30.56° C | 46% | 994.6 hPa | 0 mm | 0 m/s | - | - |
| 1787933486 | 31.11° C | 45% | 994.7 hPa | 0 mm | 0 m/s | - | - |
| 1787933186 | 30.56° C | 46% | 994.7 hPa | 0 mm | 0 m/s | - | - |
| 1787932886 | 31.11° C | 45% | 994.4 hPa | 0 mm | 0 m/s | - | - |
| 1787932586 | 31.67° C | 44% | 994.5 hPa | 0 mm | 0.45 m/s, 58° | - | - |
| 1787932286 | 31.67° C | 42% | 994.5 hPa | 0 mm | 0 m/s | - | - |
| 1787931986 | 31.67° C | 41% | 994.7 hPa | 0 mm | 0 m/s | - | - |
| 1787931685 | 31.67° C | 41% | 994.6 hPa | 0 mm | 0 m/s | - | - |
| 1787931389 | 31.67° C | 41% | 994.6 hPa | 0 mm | 0 m/s | - | - |
| 1787931085 | 31.67° C | 43% | 994.8 hPa | 0 mm | 0 m/s | - | - |
| 1787930785 | 31.67° C | 41% | 994.6 hPa | 0 mm | 0 m/s | - | - |
| 1787930485 | 32.22° C | 40% | 994.5 hPa | 0 mm | 0.89 m/s, 49° | - | - |
| 1787930185 | 32.22° C | 40% | 994.4 hPa | 0 mm | 0 m/s | - | - |
| 1787929885 | 32.22° C | 40% | 994.5 hPa | 0 mm | 0 m/s | - | - |
| 1787929585 | 32.22° C | 39% | 994.4 hPa | 0 mm | 0 m/s | - | - |
| 1787929285 | 32.22° C | 41% | 994.3 hPa | 0 mm | 0 m/s | - | - |
| 1787928985 | 31.67° C | 41% | 994.5 hPa | 0 mm | 0 m/s | - | - |
| 1787928691 | 32.22° C | 38% | 994.5 hPa | 0 mm | 0 m/s | - | - |
| 1787928384 | 31.11° C | 44% | 994.5 hPa | 0 mm | 0 m/s | - | - |
* Rain latest hour (hover to see other rain measurements)
** Current wind speed in m/s (hover to see current wind gust speed)